Time,TemperatureF,DewpointF,PressureIn,WindDirection,WindDirectionDegrees,WindSpeedMPH,WindSpeedGustMPH,Humidity,HourlyPrecipIn,Conditions,Clouds,dailyrainin,SolarRadiationWatts/m^2,SoftwareType,DateUTC
2013-06-03 00:12:00,38.0,37.0,-100.00,WNW,296,2.0,4.0,97,0.00,,,0.06,0.000000,,2013-06-03 08:12:00,
2013-06-03 00:22:00,38.0,37.0,-100.00,WNW,296,2.0,4.0,97,0.00,,,0.06,0.000000,,2013-06-03 08:22:00,
2013-06-03 00:32:00,38.0,37.0,-100.00,WNW,296,2.0,4.0,97,0.00,,,0.06,0.000000,,2013-06-03 08:32:00,
2013-06-03 00:42:00,38.0,37.0,-100.00,WNW,296,2.0,4.0,97,0.00,,,0.06,0.000000,,2013-06-03 08:42:00,
2013-06-03 00:51:00,38.0,37.0,-100.00,WNW,296,2.0,4.0,97,0.00,,,0.06,0.000000,,2013-06-03 08:51:00,
2013-06-03 01:22:00,37.0,37.0,-100.00,NW,316,0.0,2.0,99,0.00,,,0.04,0.000000,,2013-06-03 09:22:00,
2013-06-03 01:33:00,37.0,37.0,-100.00,NW,316,0.0,2.0,99,0.00,,,0.04,0.000000,,2013-06-03 09:33:00,
2013-06-03 01:42:00,37.0,37.0,-100.00,NW,316,0.0,2.0,99,0.00,,,0.04,0.000000,,2013-06-03 09:42:00,
2013-06-03 01:52:00,37.0,37.0,-100.00,NW,316,0.0,2.0,99,0.00,,,0.04,0.000000,,2013-06-03 09:52:00,
2013-06-03 02:22:00,37.0,37.0,-100.00,West,279,0.0,1.0,100,0.00,,,0.02,0.000000,,2013-06-03 10:22:00,
2013-06-03 02:33:00,37.0,37.0,-100.00,West,279,0.0,1.0,100,0.00,,,0.02,0.000000,,2013-06-03 10:33:00,
2013-06-03 02:42:00,37.0,37.0,-100.00,West,279,0.0,1.0,100,0.00,,,0.02,0.000000,,2013-06-03 10:42:00,
2013-06-03 02:52:00,37.0,37.0,-100.00,West,279,0.0,1.0,100,0.00,,,0.02,0.000000,,2013-06-03 10:52:00,
2013-06-03 03:22:00,36.0,36.0,-100.00,South,169,0.0,2.0,100,0.00,,,0.01,0.000000,,2013-06-03 11:22:00,
2013-06-03 03:32:00,36.0,36.0,-100.00,South,169,0.0,2.0,100,0.00,,,0.01,0.000000,,2013-06-03 11:32:00,
2013-06-03 03:42:00,36.0,36.0,-100.00,South,169,0.0,2.0,100,0.00,,,0.01,0.000000,,2013-06-03 11:42:00,
2013-06-03 03:52:00,36.0,36.0,-100.00,South,169,0.0,2.0,100,0.00,,,0.01,0.000000,,2013-06-03 11:52:00,
2013-06-03 04:22:00,36.0,36.0,-100.00,West,268,0.0,1.0,100,0.00,,,0.01,0.000000,,2013-06-03 12:22:00,
2013-06-03 04:32:00,36.0,36.0,-100.00,West,268,0.0,1.0,100,0.00,,,0.01,0.000000,,2013-06-03 12:32:00,
2013-06-03 04:42:00,36.0,36.0,-100.00,West,268,0.0,1.0,100,0.00,,,0.01,0.000000,,2013-06-03 12:42:00,
2013-06-03 04:52:00,36.0,36.0,-100.00,West,268,0.0,1.0,100,0.00,,,0.01,0.000000,,2013-06-03 12:52:00,
2013-06-03 05:22:00,37.0,37.0,-100.00,South,184,0.0,1.0,100,0.00,,,0.00,28.000000,,2013-06-03 13:22:00,
2013-06-03 05:32:00,37.0,37.0,-100.00,South,184,0.0,1.0,100,0.00,,,0.00,28.000000,,2013-06-03 13:32:00,
2013-06-03 05:42:00,37.0,37.0,-100.00,South,184,0.0,1.0,100,0.00,,,0.00,28.000000,,2013-06-03 13:42:00,
2013-06-03 05:52:00,37.0,37.0,-100.00,South,184,0.0,1.0,100,0.00,,,0.00,28.000000,,2013-06-03 13:52:00,
2013-06-03 06:22:00,43.0,43.0,-100.00,ESE,113,0.0,1.0,100,0.00,,,0.00,151.000000,,2013-06-03 14:22:00,
2013-06-03 06:32:00,43.0,43.0,-100.00,ESE,113,0.0,1.0,100,0.00,,,0.00,151.000000,,2013-06-03 14:32:00,
2013-06-03 06:42:00,43.0,43.0,-100.00,ESE,113,0.0,1.0,100,0.00,,,0.00,151.000000,,2013-06-03 14:42:00,
2013-06-03 06:52:00,43.0,43.0,-100.00,ESE,113,0.0,1.0,100,0.00,,,0.00,151.000000,,2013-06-03 14:52:00,
2013-06-03 07:22:00,51.0,48.0,-100.00,NE,49,2.0,4.0,89,0.00,,,0.00,330.000000,,2013-06-03 15:22:00,
2013-06-03 07:33:00,51.0,48.0,-100.00,NE,49,2.0,4.0,89,0.00,,,0.00,330.000000,,2013-06-03 15:33:00,
2013-06-03 07:43:00,51.0,48.0,-100.00,NE,49,2.0,4.0,89,0.00,,,0.00,330.000000,,2013-06-03 15:43:00,
2013-06-03 07:53:00,51.0,48.0,-100.00,NE,49,2.0,4.0,89,0.00,,,0.00,330.000000,,2013-06-03 15:53:00,
2013-06-03 08:23:00,52.0,44.0,-100.00,NE,38,3.0,6.0,74,0.00,,,0.00,422.000000,,2013-06-03 16:23:00,
2013-06-03 08:33:00,52.0,44.0,-100.00,NE,38,3.0,6.0,74,0.00,,,0.00,422.000000,,2013-06-03 16:33:00,
2013-06-03 08:42:00,52.0,44.0,-100.00,NE,38,3.0,6.0,74,0.00,,,0.00,422.000000,,2013-06-03 16:42:00,
2013-06-03 08:53:00,52.0,44.0,-100.00,NE,38,3.0,6.0,74,0.00,,,0.00,422.000000,,2013-06-03 16:53:00,
2013-06-03 10:22:00,56.0,42.0,-100.00,South,190,0.0,0.0,60,-99.99,,,0.00,528.000000,,2013-06-03 18:22:00,
2013-06-03 11:22:00,58.0,45.0,-100.00,South,184,0.0,0.0,61,0.00,,,0.00,617.000000,,2013-06-03 19:22:00,
2013-06-03 11:42:00,58.0,45.0,-100.00,South,184,0.0,0.0,61,0.00,,,0.00,617.000000,,2013-06-03 19:42:00,
2013-06-03 11:52:00,58.0,45.0,-100.00,South,184,0.0,0.0,61,0.00,,,0.00,617.000000,,2013-06-03 19:52:00,
2013-06-03 12:22:00,58.0,45.0,-100.00,ESE,117,0.0,0.0,61,0.00,,,0.00,451.000000,,2013-06-03 20:22:00,
2013-06-03 12:32:00,58.0,45.0,-100.00,ESE,117,0.0,0.0,61,0.00,,,0.00,451.000000,,2013-06-03 20:32:00,
2013-06-03 12:42:00,58.0,45.0,-100.00,ESE,117,0.0,0.0,61,0.00,,,0.00,451.000000,,2013-06-03 20:42:00,
2013-06-03 12:52:00,58.0,45.0,-100.00,ESE,117,0.0,0.0,61,0.00,,,0.00,451.000000,,2013-06-03 20:52:00,
2013-06-03 13:22:00,58.0,45.0,-100.00,South,170,0.0,0.0,62,0.00,,,0.00,407.000000,,2013-06-03 21:22:00,
2013-06-03 13:33:00,58.0,45.0,-100.00,South,170,0.0,0.0,62,0.00,,,0.00,407.000000,,2013-06-03 21:33:00,
2013-06-03 13:43:00,58.0,45.0,-100.00,South,170,0.0,0.0,62,0.00,,,0.00,407.000000,,2013-06-03 21:43:00,
2013-06-03 13:52:00,58.0,45.0,-100.00,South,170,0.0,0.0,62,0.00,,,0.00,407.000000,,2013-06-03 21:52:00,
2013-06-03 14:22:00,54.0,43.0,-100.00,SSW,204,0.0,0.0,67,0.00,,,0.00,255.000000,,2013-06-03 22:22:00,
2013-06-03 14:32:00,54.0,43.0,-100.00,SSW,204,0.0,0.0,67,0.00,,,0.00,255.000000,,2013-06-03 22:32:00,
2013-06-03 14:42:00,54.0,43.0,-100.00,SSW,204,0.0,0.0,67,0.00,,,0.00,255.000000,,2013-06-03 22:42:00,
2013-06-03 14:52:00,54.0,43.0,-100.00,SSW,204,0.0,0.0,67,0.00,,,0.00,255.000000,,2013-06-03 22:52:00,
2013-06-03 15:22:00,56.0,49.0,-100.00,South,169,0.0,0.0,77,0.01,,,0.01,307.000000,,2013-06-03 23:22:00,
2013-06-03 15:32:00,56.0,49.0,-100.00,South,169,0.0,0.0,77,0.01,,,0.01,307.000000,,2013-06-03 23:32:00,
2013-06-03 15:42:00,56.0,49.0,-100.00,South,169,0.0,0.0,77,0.01,,,0.01,307.000000,,2013-06-03 23:42:00,
2013-06-03 15:52:00,56.0,49.0,-100.00,South,169,0.0,0.0,77,0.01,,,0.01,307.000000,,2013-06-03 23:52:00,
2013-06-03 16:22:00,53.0,44.0,-100.00,South,176,0.0,0.0,72,0.00,,,0.01,237.000000,,2013-06-04 00:22:00,
2013-06-03 16:32:00,53.0,44.0,-100.00,South,176,0.0,0.0,72,0.00,,,0.01,237.000000,,2013-06-04 00:32:00,
2013-06-03 16:42:00,53.0,44.0,-100.00,South,176,0.0,0.0,72,0.00,,,0.01,237.000000,,2013-06-04 00:42:00,
2013-06-03 16:52:00,53.0,44.0,-100.00,South,176,0.0,0.0,72,0.00,,,0.01,237.000000,,2013-06-04 00:52:00,
2013-06-03 17:22:00,52.0,45.0,-100.00,South,183,0.0,0.0,78,0.00,,,0.01,114.000000,,2013-06-04 01:22:00,
2013-06-03 17:32:00,52.0,45.0,-100.00,South,183,0.0,0.0,78,0.00,,,0.01,114.000000,,2013-06-04 01:32:00,
2013-06-03 17:42:00,52.0,45.0,-100.00,South,183,0.0,0.0,78,0.00,,,0.01,114.000000,,2013-06-04 01:42:00,
2013-06-03 17:52:00,52.0,45.0,-100.00,South,183,0.0,0.0,78,0.00,,,0.01,114.000000,,2013-06-04 01:52:00,
2013-06-03 18:22:00,50.0,46.0,-100.00,South,171,0.0,0.0,87,0.02,,,0.03,58.000000,,2013-06-04 02:22:00,
2013-06-03 18:32:00,50.0,46.0,-100.00,South,171,0.0,0.0,87,0.02,,,0.03,58.000000,,2013-06-04 02:32:00,
2013-06-03 18:42:00,50.0,46.0,-100.00,South,171,0.0,0.0,87,0.02,,,0.03,58.000000,,2013-06-04 02:42:00,
2013-06-03 18:52:00,50.0,46.0,-100.00,South,171,0.0,0.0,87,0.02,,,0.03,58.000000,,2013-06-04 02:52:00,
2013-06-03 19:22:00,50.0,49.0,-100.00,SSE,167,0.0,0.0,95,0.01,,,0.04,54.000000,,2013-06-04 03:22:00,
2013-06-03 19:32:00,50.0,49.0,-100.00,SSE,167,0.0,0.0,95,0.01,,,0.04,54.000000,,2013-06-04 03:32:00,
2013-06-03 19:43:00,50.0,49.0,-100.00,SSE,167,0.0,0.0,95,0.01,,,0.04,54.000000,,2013-06-04 03:43:00,
2013-06-03 19:53:00,50.0,49.0,-100.00,SSE,167,0.0,0.0,95,0.01,,,0.04,54.000000,,2013-06-04 03:53:00,
2013-06-03 20:23:00,49.0,47.0,-100.00,SSE,153,0.0,0.0,94,0.00,,,0.04,27.000000,,2013-06-04 04:23:00,
2013-06-03 20:33:00,49.0,47.0,-100.00,SSE,153,0.0,0.0,94,0.00,,,0.04,27.000000,,2013-06-04 04:33:00,
2013-06-03 20:42:00,49.0,47.0,-100.00,SSE,153,0.0,0.0,94,0.00,,,0.04,27.000000,,2013-06-04 04:42:00,
2013-06-03 20:53:00,49.0,47.0,-100.00,SSE,153,0.0,0.0,94,0.00,,,0.04,27.000000,,2013-06-04 04:53:00,
2013-06-03 21:22:00,48.0,47.0,-100.00,South,171,0.0,0.0,95,0.02,,,0.06,10.000000,,2013-06-04 05:22:00,
2013-06-03 21:32:00,48.0,47.0,-100.00,South,171,0.0,0.0,95,0.02,,,0.06,10.000000,,2013-06-04 05:32:00,
2013-06-03 21:42:00,48.0,47.0,-100.00,South,171,0.0,0.0,95,0.02,,,0.06,10.000000,,2013-06-04 05:42:00,
2013-06-03 21:52:00,48.0,47.0,-100.00,South,171,0.0,0.0,95,0.02,,,0.06,10.000000,,2013-06-04 05:52:00,
2013-06-03 22:22:00,47.0,46.0,-100.00,South,176,0.0,0.0,95,0.00,,,0.06,1.000000,,2013-06-04 06:22:00,
2013-06-03 22:32:00,47.0,46.0,-100.00,South,176,0.0,0.0,95,0.00,,,0.06,1.000000,,2013-06-04 06:32:00,
2013-06-03 22:42:00,47.0,46.0,-100.00,South,176,0.0,0.0,95,0.00,,,0.06,1.000000,,2013-06-04 06:42:00,
2013-06-03 22:52:00,47.0,46.0,-100.00,South,176,0.0,0.0,95,0.00,,,0.06,1.000000,,2013-06-04 06:52:00,
2013-06-03 23:22:00,46.0,45.0,-100.00,SSW,194,0.0,0.0,96,0.05,,,0.11,0.000000,,2013-06-04 07:22:00,
2013-06-03 23:32:00,46.0,45.0,-100.00,SSW,194,0.0,0.0,96,0.05,,,0.11,0.000000,,2013-06-04 07:32:00,
2013-06-03 23:42:00,46.0,45.0,-100.00,SSW,194,0.0,0.0,96,0.05,,,0.11,0.000000,,2013-06-04 07:42:00,
2013-06-03 23:52:00,46.0,45.0,-100.00,SSW,194,0.0,0.0,96,0.05,,,0.11,0.000000,,2013-06-04 07:52:00,